Vertical_Velocity
4 11 3 -6 3 -5 -1 0 0 2 2 -1 1 -0 -3 1 -0 -1 -1 -1 0 -2 0 -3 1 2 -1 -2 0 -2 -3 -6
-2 0 0 -3 -6 -5 0 -1 1 1 1 1 3 1 2 -4 -1 -4 2 -2 -0 2 3 -3 1 -1 1 -2 -0 -2 -4 -12
5 4 -9 -10 -4 -2 -3 -2 1 2 -2 -0 -1 -2 1 -3 -7 -4 2 -4 -3 2 0 -1 1 1 3 0 -4 -1 -2 -8
-13 -6 1 -4 -3 -3 1 -0 -1 0 -3 -1 2 -6 6 -2 3 2 -1 -5 -0 0 -2 -1 1 -6 5 2 7 5 -1 -7
2 -2 -2 3 -4 2 -6 -3 4 1 -4 -2 -3 5 -4 5 3 6 -1 -3 -3 -0 -2 1 -4 2 -1 -6 0 -3 -2 -1
-4 1 -1 -1 -3 -0 4 1 -2 2 -1 -2 -3 -1 -0 -0 5 -3 13 1 3 -7 -4 -3 -3 -4 -3 -2 -2 -2 -1 0
-3 1 0 -0 2 1 3 -0 0 2 -0 -1 2 0 -4 -5 -6 -5 -5 -4 -4 -7 -1 -3 -1 0 -1 -1 -1 3 -0 -1
0 -3 -0 -2 2 -4 -4 -1 -5 -1 2 4 1 4 -2 -0 -3 2 1 -1 -2 -6 1 -2 -2 -2 -1 -1 -0 -4 0 -0
-4 -2 0 1 1 -1 -4 1 -1 1 7 -3 -1 1 2 -8 -12 -9 -2 -0 0 -2 -4 -4 -3 -0 -2 0 1 2 -1 -1
5 5 1 -3 -2 -2 1 -0 -6 7 -4 -2 3 2 -2 0 -4 -2 1 -2 -0 0 -4 -4 -3 -2 -2 -4 -3 -1 -0 -2
4 -4 3 -5 4 4 1 4 0 -0 -2 -1 0 3 0 1 1 1 -4 -3 -3 5 2 -4 -1 2 -1 0 1 2 0 1
-0 -1 7 2 1 1 2 2 1 -2 -5 -3 2 -6 -5 -5 2 -3 -6 -3 -2 -1 -1 -5 -6 -7 -5 -4 -3 -3 -8 -11
-1 2 -1 0 0 2 -1 -1 -2 0 1 2 -4 -2 1 1 -4 0 7 -7 -6 -2 -2 -2 1 -6 -3 0 1 2 4 -10
5 -1 3 1 -2 -1 -2 -3 -2 1 -6 -2 -1 2 -4 -2 -2 -3 2 2 -1 -2 -4 -0 1 0 -4 -3 4 22 3 7
-3 -4 -5 -3 -3 -1 -3 1 -1 2 2 7 -4 -0 0 -2 -1 -1 -3 -5 -3 -0 0 3 1 7 -0 -7 -4 -4 -7 7
1 -0 -1 -1 -2 -0 -3 -7 -2 -6 -2 -1 3 7 -0 -2 -2 -2 -2 2 3 3 2 -1 -4 -1 5 4 -0 -11 -13 -3
-1 1 3 0 -3 3 -1 -10 -4 -5 -5 -4 -2 -5 -5 7 12 4 3 2 2 2 2 1 -6 -7 -7 -3 1 -0 -2 -21
-0 -1 -1 -0 -2 -1 -2 -2 -4 -2 2 -5 -4 -3 -5 -9 -7 -4 -2 -4 -5 -6 -7 3 -9 -5 -3 -2 -9 -11 -1 -8
-1 -1 -0 1 1 -1 -2 -2 -3 -4 -5 -4 -3 -3 -1 -2 -3 -6 -5 -4 -4 -1 0 3 0 -12 -9 -7 -4 -4 -11 -7
-1 0 3 1 -0 1 -1 2 2 1 -1 1 3 1 0 -1 -0 -1 -0 -1 -4 -3 -3 -5 -3 -1 -2 -2 -6 -9 -7 -4
Height
5797 5800 5805 5810 5812 5816 5819 5821 5823 5826 5828 5828 5828 5827 5826 5825 5825 5823 5822 5821 5820 5819 5819 5817 5816 5815 5813 5812 5811 5808 5806 5803
5796 5800 5803 5806 5810 5815 5818 5820 5821 5824 5826 5825 5825 5824 5822 5821 5820 5818 5817 5817 5816 5814 5813 5812 5811 5810 5809 5808 5806 5805 5801 5798
5795 5799 5802 5805 5811 5815 5817 5818 5821 5823 5824 5823 5822 5820 5819 5817 5816 5814 5813 5812 5811 5810 5809 5808 5807 5805 5804 5802 5799 5798 5795 5793
5797 5801 5804 5807 5811 5813 5815 5818 5820 5821 5819 5818 5817 5814 5815 5813 5811 5810 5809 5808 5807 5805 5803 5802 5800 5798 5797 5796 5794 5790 5787 5785
5798 5801 5805 5808 5810 5813 5816 5815 5816 5817 5816 5815 5812 5811 5810 5810 5807 5805 5803 5804 5801 5800 5797 5797 5793 5793 5789 5786 5784 5782 5779 5777
5801 5803 5806 5808 5811 5812 5812 5814 5814 5814 5813 5811 5808 5807 5806 5805 5805 5802 5802 5800 5796 5793 5791 5789 5788 5786 5783 5781 5778 5774 5771 5767
5802 5804 5806 5808 5808 5809 5811 5812 5811 5812 5810 5808 5806 5804 5800 5799 5799 5797 5795 5792 5790 5788 5786 5782 5778 5775 5773 5769 5768 5764 5761 5758
5802 5804 5805 5806 5806 5807 5807 5806 5805 5805 5804 5802 5802 5799 5797 5792 5791 5789 5786 5784 5781 5780 5777 5774 5770 5766 5761 5759 5757 5754 5752 5748
5803 5803 5804 5804 5804 5804 5803 5802 5802 5798 5796 5797 5795 5793 5788 5787 5786 5783 5778 5776 5773 5770 5767 5764 5760 5756 5753 5750 5747 5745 5743 5740
5800 5802 5801 5801 5800 5799 5796 5796 5796 5795 5792 5792 5789 5786 5782 5779 5776 5774 5771 5767 5764 5761 5757 5753 5750 5747 5744 5742 5740 5737 5735 5731
5798 5797 5797 5797 5795 5795 5793 5791 5791 5790 5787 5784 5781 5778 5774 5770 5767 5764 5760 5757 5754 5751 5748 5744 5741 5738 5735 5733 5730 5727 5723 5720
5795 5795 5794 5792 5791 5790 5788 5787 5784 5781 5778 5775 5772 5769 5766 5762 5761 5756 5751 5748 5745 5742 5739 5735 5730 5727 5724 5720 5717 5714 5710 5705
5793 5792 5790 5788 5787 5785 5784 5781 5778 5774 5772 5768 5764 5760 5757 5754 5749 5745 5743 5739 5734 5730 5726 5720 5716 5712 5708 5705 5702 5698 5695 5689
5789 5787 5785 5784 5782 5781 5778 5775 5772 5769 5765 5761 5758 5755 5750 5745 5741 5735 5730 5725 5720 5715 5711 5707 5704 5698 5693 5690 5687 5686 5680 5674
5784 5783 5782 5780 5778 5775 5773 5770 5767 5764 5761 5757 5751 5747 5741 5736 5731 5725 5720 5714 5709 5704 5700 5696 5690 5686 5680 5674 5670 5666 5662 5658
5780 5779 5777 5775 5772 5770 5767 5763 5760 5755 5752 5748 5743 5738 5732 5727 5721 5716 5710 5705 5699 5694 5687 5681 5674 5668 5663 5656 5649 5643 5639 5639
5776 5775 5773 5771 5768 5765 5761 5756 5752 5747 5742 5737 5732 5727 5722 5718 5713 5708 5701 5694 5687 5679 5672 5666 5657 5651 5645 5637 5629 5621 5612 5604
5772 5771 5769 5766 5763 5759 5754 5749 5744 5740 5735 5729 5723 5718 5711 5704 5697 5690 5683 5675 5668 5660 5653 5648 5638 5630 5622 5613 5603 5594 5584 5572
5768 5766 5764 5761 5757 5753 5748 5743 5736 5731 5725 5719 5713 5706 5699 5691 5685 5677 5670 5662 5655 5647 5639 5632 5623 5613 5603 5593 5582 5570 5559 5547
5763 5761 5759 5755 5750 5745 5740 5734 5728 5722 5716 5710 5703 5696 5689 5680 5673 5666 5659 5651 5642 5634 5625 5616 5606 5594 5583 5572 5559 5548 5537 5524